Location: Beaver Brook Station
(42.3793°N, 71.2203°W)
Time: 01:09:22
(UTC+00:00)

GPS 2-04 Rocket1 - Pass Details

Date: 29 October 2020
Orbit: 417 x 546 km, 35.6° (Epoch: 05 December)

Event Time Altitude Azimuth Distance (km) Brightness Sun altitude
Rises 23:35:00 0° 244° (WSW) 2,628 7.4 -21.5°
Reaches altitude 10° 23:37:23 10° 233° (SW) 1,761 6.1 -21.9°
Enters shadow 23:40:41 29° 180° (S) 992 4.0 -22.5°
